Regional Weather Roundup
Issued by NWS

Home | Current Version | Previous Version | Graphics & Text | Print | Product List | Glossary On
Versions: 1 2 3 4 5 6 7 8 9 10 11 12 13 14 15 16 17 18 19 20 21 22 23 24 25 26 27 28 29 30 31 32 33 34 35 36 37 38 39 40 41 42 43 44 45 46 47 48 49 50
000
ASUS43 KMKX 301411
RWRWI

WISCONSIN REGIONAL WEATHER ROUNDUP
NATIONAL WEATHER SERVICE MILWAUKEE/SULLIVAN WI
900 AM CDT THU OCT 30 2014

NOTE: "FAIR" INDICATES FEW OR NO CLOUDS BELOW 12,000 FEET WITH NO
SIGNIFICANT WEATHER AND/OR OBSTRUCTIONS TO VISIBILITY.

WIZ001-002-006>008-014>016-023>028-301500-
NORTHWEST WISCONSIN

CITY           SKY/WX    TMP DP  RH WIND       PRES   REMARKS
SUPERIOR ARPT  CLOUDY    37  34  90 W3        30.08R
ASHLAND        CLOUDY    38  33  82 SW6       30.07R WCI  33
HAYWARD        CLOUDY    36  33  89 CALM      30.06R
SIREN          CLOUDY    37  34  90 CALM      30.08R
CUMBERLAND     CLOUDY    34  32  93 CALM      30.07R
RICE LAKE      CLOUDY    36  34  92 CALM      30.08R
CHETEK         CLOUDY    37  34  90 CALM      30.07R
LADYSMITH      CLOUDY    36  34  94 CALM      30.08R
EAU CLAIRE     CLOUDY    38  33  82 CALM      30.07R
MENOMONIE      CLOUDY    37  34  89 CALM      30.07R
NEW RICHMOND   CLOUDY    38  36  90 CALM      30.06S
OSCEOLA        CLOUDY    39  37  92 E3        30.09S
$$

WIZ003>005-009-010-017-018-301500-
NORTH CENTRAL WISCONSIN

CITY           SKY/WX    TMP DP  RH WIND       PRES   REMARKS
MANITOWISH WTR CLOUDY    35  32  87 W6        30.04R WCI  30
ARBOR VITAE    CLOUDY    38  34  85 W3        30.04R
WOODRUFF       CLOUDY    38  34  85 W3        30.04R
RHINELANDER    CLOUDY    36  32  85 SW5       30.04R WCI  32
EAGLE RIVER    CLOUDY    37  32  82 CALM      30.03R
LAND O LAKES   CLOUDY    37  34  89 CALM      30.04R
PHILLIPS       CLOUDY    36  32  87 CALM      30.05R
TOMAHAWK       CLOUDY    35  32  88 CALM      30.05S
MEDFORD        CLOUDY    34  32  92 CALM      30.05S
MERRILL        CLOUDY    34  33  98 CALM      30.06R
$$

WIZ029-030-035-036-043>047-301500-
CENTRAL WISCONSIN

CITY           SKY/WX    TMP DP  RH WIND       PRES   REMARKS
WAUSAU         CLOUDY    36  34  92 SW3       30.06R
MOSINEE        PTSUNNY   36  36 100 SW5       30.07R WCI  32
MARSHFIELD     CLOUDY    35  32  88 CALM      30.06S
STEVENS POINT  PTSUNNY   33  32  96 SW3       30.08S
WAUPACA        PTSUNNY   37  35  94 CALM      30.09S
WAUTOMA        PTSUNNY   33  32  96 CALM      30.09F
WISC RAPIDS    CLOUDY    36  34  92 CALM      30.09S
CAMP DOUGLAS   CLOUDY    36  36 100 SE5       30.08S WCI  32
$$

WIZ011>013-019>022-031-037>040-048>050-301500-
NORTHEAST WISCONSIN

CITY           SKY/WX    TMP DP  RH WIND       PRES   REMARKS
ANTIGO         CLOUDY    35  33  94 CALM      30.05S
SHAWANO        PTSUNNY   39  35  84 SW5       30.08S
OCONTO         CLOUDY    40  36  86 W5        30.07F
STURGEON BAY   PTSUNNY   41  34  75 SW5       30.08S
GREEN BAY      CLOUDY    39  36  89 SW3       30.08F
MANITOWOC      CLOUDY    41  37  86 W5        30.10R
APPLETON       PTSUNNY   37  36  93 SW7       30.09R WCI  32
CLINTONVILLE   CLOUDY    36  34  93 CALM      30.08S
OSHKOSH        PTSUNNY   37  33  85 SW3       30.09R
$$

WIZ032>034-041-042-053>061-301500-
SOUTHWEST WISCONSIN

CITY           SKY/WX    TMP DP  RH WIND       PRES   REMARKS
LA CROSSE      CLOUDY    41  36  82 SE8       30.09R
SPARTA         CLOUDY    34  33  95 CALM      30.09S
VIROQUA        PTSUNNY   38  34  84 S6        30.08R WCI  34
BOSCOBEL       CLOUDY    35  33  92 CALM      30.12S FOG
PRAIRIE DU CHI PTSUNNY   36  33  90 CALM      30.10S
PLATTEVILLE    CLOUDY    37  34  90 SE5       30.11S WCI  33
$$

WIZ056-057-062-063-064-067-068-301500-
SOUTH CENTRAL WISCONSIN

CITY           SKY/WX    TMP DP  RH WIND       PRES   REMARKS
REEDSBURG      CLOUDY    34  32  92 CALM      30.09S
BARABOO/DELLS  CLOUDY    37  33  85 CALM      30.09S
LONE ROCK      CLOUDY    39  33  79 CALM      30.11R
MINERAL POINT  CLOUDY    37  34  87 CALM      30.09S
MADISON        CLOUDY    40  35  83 CALM      30.10S
MIDDLETON      CLOUDY    40  33  75 CALM      30.10S
WATERTOWN      CLOUDY    36  35  96 S3        30.11S
MONROE         CLOUDY    37  34  87 S6        30.10S WCI  33
JANESVILLE     MOSUNNY   37  36  93 CALM      30.11S
$$

WIZ051-052-058>065-066-070>072-301500-
SOUTHEAST WISCONSIN

CITY           SKY/WX    TMP DP  RH WIND       PRES   REMARKS
MILWAUKEE      PTSUNNY   39  32  76 W6        30.12R WCI  35
WAUKESHA       MOSUNNY   34  32  93 CALM      30.12R
MILWAUKEE/TIMM PTSUNNY   37  32  81 CALM      30.12R
RACINE         PTSUNNY   40  34  79 SW6       30.14R
BURLINGTON     PTSUNNY   34  33  96 SW5       30.12S WCI  30
KENOSHA        PTSUNNY   39  36  89 SW7       30.13R WCI  34
FOND DU LAC    PTSUNNY   36  33  89 S5        30.10R WCI  32
SHEBOYGAN      PTSUNNY   38  34  85 SW5       30.10R WCI  34
WEST BEND      PTSUNNY   34  32  93 CALM      30.10S
JUNEAU         CLOUDY    35  33  92 CALM      30.11S
$$

LSZ147-162-301500-
LAKE SUPERIOR

STATION/POSITION TIME  TEMP    WIND        PRES    WAVE
                       AIR SEA DIR/SP/G            HT/PER
                 (UTC) (F)     (DEG/KT/KT) (MB)    (FT/S)
W MID LAKE BUOY  1350   40 45  240/  8/ 10 1017.4R   2/ 4
DEVILS ISLAND    1400   40     280/  9/ 11 1018.3R
PORT WING        1300   41     300/ 10/ 11 1017.9S
SAXON HARBOR     1340   40     210/  3/  5 1017.9R
$$

LMZ867-665-643>646-301500-
LAKE MICHIGAN

STATION/POSITION TIME  TEMP    WIND        PRES    WAVE
                       AIR SEA DIR/SP/G            HT/PER
                 (UTC) (F)     (DEG/KT/KT) (MB)    (FT/S)
CHAMBERS ISLAND  1300   44     230/  6/  9 1018.3S
N MID LAKE BUOY  1350   43 51  170/  4/  6 1018.7S   0
NORTHPORT PIER   1300   43     200/  2/  3 1018.3S
KEWAUNEE LAKESHO 1300   38     300/  4/  5 1017.7F
SHEBOYGAN LAKESH 1400   42 50  240/  6/  7 1019.8F
PORT WASHINGTON  1300   39     280/  5/  7 1020.0
ATWATER BUOY     1400   42     240/ 10/ 14 1020.6R
MILWAUKEE LAKESH 1300   40     230/  9/ 10   N/A
S MID LAKE BUOY  1350   48 53  230/ 10/ 12 1020.3R   1/ 5
KENOSHA   LAKESH 1400   40     240/  6/  9 1020.3R
$$

TC  - TEMPERATURE IN CELSIUS
VSB - VISIBILITY IN STATUTE MILES
WCI - WIND CHILL INDEX
HX  - HEAT INDEX




USA.gov is the U.S. government's official web portal to all federal, state and local government web resources and services.